www.pogodaiklimat.ru

Погода и климат >> Архив погоды >> Украина >> Винница


АРХИВ ПОГОДЫ в Виннице

Время (UTC), дата Ветер
(напр.,м/с)
 
Видим.   Явления Облачность Т
(С)
Тd
(С)
f
(%)
Тe
(С)
Тes
(С)
Комфортность P
(гПа)
Po
(гПа)
Тmin
(С)
Tmax
(С)
R
(мм)
R24
(мм)
S
(см)
06 16.08 СЗ 6 13 км 8/3 600 м
[Sc Ac trans]
+15.7 +12.7 82 +14 +15 прохладно 1014.0 979.2 +12.3 0.0
09 16.08 С 7 13 км 8/3 1000 м
[Sc Ac trans]
+19.5 +9.0 51 +20 +21 по сезону 1013.5 979.2
12 16.08 С 5 13 км 6/3 1000 м
[Sc Ac trans]
+21.3 +9.3 46 +23 +26 комфорт 1012.9 978.8
15 16.08 С 4 13 км 8/3 1000 м
[Sc Ac trans]
+20.1 +9.5 50 +21 +22 комфорт 1013.2 978.9
18 16.08 С 4 13 км 6/3 600 м
[Sc Ac trans]
+17.5 +9.2 58 +17 +17 прохладно 1014.1 979.5 +22.1
21 16.08 СЗ 4 13 км 3/0
[Ac trans]
+12.9 +8.8 76 +11 +11 холодно 1015.3 980.1
00 17.08 СЗ 4 13 км 3/0
[Ac trans]
+12.3 +8.9 80 +10 +10 прохладно 1015.3 980.0
03 17.08 СЗ 3 13 км 8/4 600 м
[Sc Ac trans]
+11.1 +8.9 86 +9 +9 холодно 1015.2 979.8
06 17.08 СЗ 5 13 км 8/0
[Ac trans]
+15.2 +9.5 69 +14 +15 прохладно 1015.1 980.2 +10.8
09 17.08 СЗ 7 13 км 6/3 1500 м
[Cu hum Ac trans Ci fib]
+20.2 +7.5 44 +21 +23 комфорт 1014.0 979.7
12 17.08 С 7 13 км 6/6 1500 м
[Cu hum]
+22.8 +7.7 38 +24 +25 комфорт 1013.2 979.2
15 17.08 СЗ 6 13 км 6/3 1500 м
[Cu hum Ac trans]
+21.8 +7.8 41 +23 +23 комфорт 1013.3 979.2
18 17.08 СЗ 3 13 км 3/0
[Ac trans]
+17.2 +11.0 67 +17 +17 по сезону 1014.1 979.5 +23.3
21 17.08 СЗ 3 13 км ясно +13.6 +10.2 80 +12 +12 прохладно 1014.8 979.7
00 18.08 З 2 13 км ясно +12.4 +10.1 86 +11 +11 прохладно 1015.4 980.2
03 18.08 З 2 13 км ясно +10.6 +9.4 92 +9 +9 холодно 1015.8 980.3
06 18.08 СЗ 3 13 км ясно +16.4 +10.9 70 +16 +20 по сезону 1015.4 980.7 +10.6
09 18.08 С 4 13 км 5/3 1500 м
[Cu hum Ac trans]
+23.0 +8.2 39 +24 +29 комфорт 1014.9 980.9
12 18.08 СЗ 5 13 км 5/3 1500 м
[Cu hum Ac trans]
+24.8 +7.6 33 +25 +28 комфорт 1014.5 980.7
15 18.08 СЗ 4 13 км 4/3 1000 м
[Sc Ac trans]
+25.0 +9.2 37 +26 +27 жарко 1014.7 980.9
18 18.08 штиль 0 13 км 3/0
[Ci fib]
+21.3 +10.9 51 +23 +23 комфорт 1015.7 981.5 +26.2
21 18.08 штиль 0 13 км ясно +18.0 +10.6 62 +18 +18 тепло 1016.6 982.0
00 19.08 штиль 0 13 км ясно +16.2 +10.6 69 +16 +16 тепло 1017.6 982.8
03 19.08 Ю 2 13 км 4/0
[Ac trans Ci fib]
+16.5 +9.9 65 +17 +17 тепло 1018.1 983.3
06 19.08 Ю 2 13 км ясно +21.0 +12.4 58 +24 +29 комфорт 1018.6 984.3 +15.3 178
09 19.08 ЮЗ 3 13 км 3/0
[Ac trans]
+26.2 +8.4 32 +26 +35 жарко 1018.1 984.4
12 19.08 Ю 3 13 км 3/3 1500 м
[Cu hum]
+28.1 +9.6 31 +28 +35 жарко 1017.6 984.1
15 19.08 Ю 3 13 км 3/0
[Ac trans]
+28.0 +10.7 34 +29 +30 жарко 1017.7 984.2
18 19.08 Ю 2 13 км 3/0
[Ac trans]
+23.9 +11.8 47 +26 +26 жарко 1019.0 985.0 +29.1
21 19.08 штиль 0 13 км ясно +20.1 +12.3 61 +22 +22 комфорт 1019.9 985.4
00 20.08 штиль 0 13 км ясно +17.8 +11.6 67 +18 +18 тепло 1020.3 985.6
03 20.08 ЮВ 2 13 км ясно +15.0 +11.5 80 +15 +15 по сезону 1021.4 986.3
06 20.08 штиль 0 13 км ясно +21.9 +12.9 57 +25 +31 комфорт 1021.6 987.3 +14.4
09 20.08 Ю 2 13 км ясно +28.8 +10.9 33 +29 +42 жарко 1021.1 987.6
12 20.08 Ю 3 13 км 3/0
[Ci fib]
+29.9 +11.4 32 +30 +39 жарко 1020.4 987.0
15 20.08 штиль 0 13 км ясно +29.6 +10.2 30 +30 +33 жарко 1020.1 986.7
18 20.08 штиль 0 13 км ясно +25.6 +12.3 44 +27 +27 жарко 1021.5 987.6 +31.1
21 20.08 ЮВ 3 13 км ясно +19.4 +12.7 65 +21 +21 комфорт 1022.5 987.9
00 21.08 ЮВ 2 13 км ясно +18.3 +10.3 60 +19 +19 тепло 1022.5 987.7
03 21.08 В 2 13 км ясно +16.0 +11.2 73 +16 +16 по сезону 1022.4 987.4
06 21.08 Ю 2 13 км 3/0
[Ci fib]
+23.1 +13.7 55 +26 +31 жарко 1022.3 988.1 +15.3
09 21.08 ЮВ 3 13 км ясно +28.4 +13.6 40 +30 +41 жарко 1021.0 987.5
12 21.08 штиль 0 13 км ясно +30.2 +11.6 32 +31 +46 жарко 1019.6 986.3
15 21.08 В 2 13 км ясно +29.9 +10.4 30 +30 +32 жарко 1019.0 985.6
18 21.08 СЗ 2 13 км 3/0
[Ci fib]
+25.7 +11.4 41 +27 +27 жарко 1019.9 986.1 +31.1
21 21.08 штиль 0 13 км 4/0
[Ci fib]
+20.7 +15.7 73 +24 +24 комфорт 1020.9 986.5
00 22.08 СЗ 5 13 км ясно +18.4 +13.3 72 +19 +19 тепло 1021.6 986.9
03 22.08 С 5 13 км 10/10 210 м
[St]
+18.6 +16.4 87 +19 +19 тепло 1022.5 987.8
06 22.08 С 5 13 км в посл. час морось 10/10 330 м
[St]
+17.2 +15.0 87 +17 +17 тепло 1024.1 989.2 +17.0 0.0
09 22.08 С 6 13 км 3/3 600 м
[Sc Ac trans Ci fib]
+21.0 +14.4 66 +24 +27 комфорт 1024.2 989.7
12 22.08 С 5 13 км 8/0
[Ac trans Ci fib]
+23.7 +14.9 58 +27 +30 жарко 1023.4 989.3
15 22.08 С 5 13 км 4/0
[Ac trans Ci fib]
+22.5 +13.6 57 +26 +27 жарко 1023.6 989.3
18 22.08 С 3 13 км 4/0
[Ac trans Ci fib]
+19.8 +13.2 66 +22 +22 комфорт 1024.9 990.3 +24.4
21 22.08 СВ 3 13 км 3/0
[Ac trans]
+16.6 +13.4 81 +16 +16 по сезону 1025.6 990.6
00 23.08 С 3 13 км ясно +15.2 +12.9 86 +14 +14 по сезону 1025.9 990.7
03 23.08 С 3 13 км 4/0
[Ac trans Ci fib]
+13.6 +12.3 92 +12 +12 прохладно 1026.0 990.6

 

Местоположение метеостанции Винница (Винницкая область, Украина): широта 49.23 долгота 28.60 высота над уровнем моря 298 м.

В архиве по умолчанию представлена погода в Виннице за последнюю неделю. Архивные данные за месяц целиком и за предыдущие месяцы, начиная с января 2011 года, Вы можете получить, выбрав интересующий диапазон дат из раскрывающегося списка и нажав кнопку "Ввод!".


*Определитесь, кто Вы:
робот инопланетянин человек

Внимание! Время в таблицах - всемирное. Для получения местного времени необходимо прибавить поправку, которая равна 2 ч.

Смотрите также архив погоды в соседних городах и на ближайших метеорологических станциях:

Погода в Жмеринке (Винницкая область, Украина) (42 км)
Погода в Белополе (Винницкая область, Украина) (70 км)
Погода в Гайсине (Винницкая область, Украина) (75 км)
Погода в Хмельнике (Винницкая область, Украина) (76 км)
Погода в Могилев-Подольском (Винницкая область, Украина) (105 км)
Погода в Новой Ушице (Хмельницкая область, Украина) (106 км)
Погода в Жашкове (Черкасская область, Украина) (109 км)
Погода в Житомире (Житомирская область, Украина) (112 км)
Погода в Новоднестровске (Черновицкая область, Украина) (112 км)
Погода в Сороках (Молдова) (117 км)

Пояснения к столбцам:

Ветер - указаны скорость ветра в м/с - средняя за 10 мин, порывы в срок и между сроками (в фигурных скобках) и направление, откуда дует ветер: С - северный, СВ - северо-восточный, В - восточный, ЮВ - юго-восточный, Ю - южный, ЮЗ - юго-западный, З - западный, СЗ - северо-западный.
Видимость - горизонтальная дальность видимости в метрах или километрах. При видимости от 1 до 10 км при отсутствии осадков обычно наблюдается дымка, при ухудшении видимости до 1 км и менее - туман. В сухую погоду видимость может ухудшаться дымом, пылью или мглою.
Явления - указаны атмосферные явления, наблюдавшиеся в срок или в последний час перед сроком; фигурными скобками обозначены явления, наблюдавшиеся между сроками (за 1-3 часа до срока); квадратными скобками обозначены град или гололедные отложения с указанием их диаметра в мм.
Облачность - указаны через наклонную черту общая и нижняя облачность в баллах и высота нижней границы облаков в метрах; квадратными скобками обозначены формы облаков: Ci - перистые, Cs - перисто-слоистые, Cc - перисто-кучевые, Ac - высококучевые, As - высокослоистые, Sc - слоисто-кучевые, Ns - слоисто-дождевые, Cu - кучевые, Cb - кучево-дождевые. Подробнее классификацию облаков см. в Атласе облаков (PDF).
T - Температура воздуха - температура, измеренная на высоте 2 м над землей.
Td - Температура точки росы - температура, при понижении до которой содержащийся в воздухе водяной пар достигнет насыщения.
f - Относительная влажность воздуха - влажноcть воздуха, измеренная на высоте 2 м над землей.
Te - Эффективная температура - температура, которую ощущает одетый по сезону человек в тени. Характеристика душности погоды. При расчете учитывается влияние влажности воздуха и скорости ветра на теплоощущения человека.
Tes - Эффективная температура на солнце - температура, которую ощущает человек, с поправкой на солнечный нагрев. Характеристика знойности погоды. Зависит от высоты солнца над горизонтом, облачности и скорости ветра. Ночью, в пасмурную погоду, а также при ветре 12 м/с и более поправка равна нулю.
P - Атмосферное давление - приведенное к уровню моря атмосферное давление.
Po - Атмосферное давление - измеренное на уровне метеостанции атмосферное давление.
Tmin - Минимальная температура - минимум температуры воздуха на высоте 2 м над землей.
Tmax - Максимальная температура - максимум температуры воздуха на высоте 2 м над землей.
R - Количество осадков - Количество выпавших осадков за период времени, мм. При наведении курсора мыши на число - период времени, за который выпало указанное количество осадков.
R24 - Количество осадков - Количество выпавших осадков за 24 часа, мм.
S - Снежный покров - Высота снежного покрова, см. При наведении курсора мыши на число - состояние снежного покрова и степень покрытия местности в баллах.